FW6908 Weather Reports


Display with metric or nautical units.
time (UTC)temp
F
wind
direction
speed
MPH
gust
MPH
rain 1hr
in
rain 24hr
in
rain mn
in
humidity
%
barometer
mb
20220817203030 82 182 0.0 0.0 0.00 0.00 0.00 57 1011.7
20220817202528 82 202 0.0 0.0 0.00 0.00 0.00 57 1011.6
20220817202023 83 205 0.0 0.0 0.00 0.00 0.00 58 1011.7
20220817201604 83 196 0.0 0.0 0.00 0.00 0.00 57 1011.6
20220817201035 83 196 0.0 0.0 0.00 0.00 0.00 58 1011.6
20220817200525 83 196 0.0 2.0 0.00 0.00 0.00 57 1011.7
20220817200033 83 193 0.0 4.0 0.00 0.00 0.00 58 1011.5
20220817195524 83 192 2.0 5.0 0.00 0.00 0.00 58 1011.5
20220817195026 83 190 3.0 5.0 0.00 0.00 0.00 58 1011.5
20220817194535 83 194 4.0 7.0 0.00 0.00 0.00 56 1011.5
20220817194023 83 239 3.0 8.0 0.00 0.00 0.00 54 1011.5
20220817193523 83 264 5.0 8.0 0.00 0.00 0.00 54 1011.6
20220817193032 84 244 2.0 8.0 0.00 0.00 0.00 53 1011.5
20220817192523 84 260 4.0 7.0 0.00 0.00 0.00 53 1011.6
20220817192022 84 275 5.0 7.0 0.00 0.00 0.00 52 1011.5
20220817191534 84 264 3.0 6.0 0.00 0.00 0.00 54 1011.5
20220817191022 84 219 2.0 8.0 0.00 0.00 0.00 55 1011.6
20220817190523 84 284 4.0 10.0 0.00 0.00 0.00 54 1011.6
20220817190021 84 281 7.0 9.0 0.00 0.00 0.00 52 1011.5
20220817185521 84 289 3.0 11.0 0.00 0.00 0.00 49 1011.4
20220817185023 84 251 5.0 12.0 0.00 0.00 0.00 52 1011.5
20220817184521 84 273 7.0 10.0 0.00 0.00 0.00 56 1011.3
20220817184023 83 250 6.0 13.0 0.00 0.00 0.00 58 1011.3
20220817183521 83 230 7.0 13.0 0.00 0.00 0.00 60 1011.4
20220817183032 84 277 6.0 11.0 0.00 0.00 0.00 58 1011.3
20220817182522 83 219 6.0 11.0 0.00 0.00 0.00 61 1011.3
20220817182020 84 224 8.0 11.0 0.00 0.00 0.00 61 1011.5
20220817181524 83 215 5.0 11.0 0.00 0.00 0.00 60 1011.3
20220817181020 83 208 7.0 12.0 0.00 0.00 0.00 60 1011.2
20220817180520 84 213 6.0 10.0 0.00 0.00 0.00 62 1011.1
20220817180029 84 243 6.0 10.0 0.00 0.00 0.00 61 1011.3
20220817175518 84 257 6.0 10.0 0.00 0.00 0.00 61 1011.2
20220817175019 84 257 6.0 8.0 0.00 0.00 0.00 61 1011.3
20220817174520 84 277 6.0 8.0 0.00 0.00 0.00 60 1011.1
20220817174019 84 213 3.0 9.0 0.00 0.00 0.00 60 1011.1
20220817173521 85 261 6.0 9.0 0.00 0.00 0.00 59 1011.0
20220817173120 86 262 4.0 10.0 0.00 0.00 0.00 57 1011.0
20220817172521 87 251 7.0 13.0 0.00 0.00 0.00 53 1010.9
20220817172017 87 335 7.0 15.0 0.00 0.00 0.00 40 1010.9
20220817171525 86 335 10.0 15.0 0.00 0.00 0.00 44 1010.9
20220817171020 86 323 4.0 10.0 0.00 0.00 0.00 49 1010.8
20220817170517 87 219 6.0 9.0 0.00 0.00 0.00 56 1010.8
20220817170019 87 224 4.0 8.0 0.00 0.00 0.00 55 1010.9
20220817165516 87 281 2.0 6.0 0.00 0.00 0.00 54 1010.8
20220817165019 87 282 2.0 8.0 0.00 0.00 0.00 54 1010.8
20220817164521 87 156 4.0 8.0 0.00 0.00 0.00 55 1010.7
20220817164022 87 232 3.0 8.0 0.00 0.00 0.00 55 1010.8
20220817163515 87 211 2.0 9.0 0.00 0.00 0.00 54 1010.8
20220817163016 87 222 8.0 9.0 0.00 0.00 0.00 53 1010.8
20220817162516 88 276 3.0 9.0 0.00 0.00 0.00 52 1010.7
20220817162015 88 269 4.0 10.0 0.00 0.00 0.00 52 1010.8
20220817161515 88 192 4.0 10.0 0.00 0.00 0.00 51 1010.7
20220817161018 89 232 4.0 8.0 0.00 0.00 0.00 50 1010.7
20220817160514 89 199 5.0 8.0 0.00 0.00 0.00 50 1010.7
20220817160136 89 203 5.0 8.0 0.00 0.00 0.00 51 1010.7
20220817155513 89 238 3.0 8.0 0.00 0.00 0.00 51 1010.6
20220817155013 88 196 3.0 8.0 0.00 0.00 0.00 50 1010.7
20220817154540 88 208 6.0 10.0 0.00 0.00 0.00 51 1010.7
20220817154013 89 239 6.0 10.0 0.00 0.00 0.00 50 1010.6
20220817153513 88 275 5.0 10.0 0.00 0.00 0.00 49 1010.6
20220817153023 88 229 6.0 12.0 0.00 0.00 0.00 51 1010.6
20220817152514 88 245 7.0 12.0 0.00 0.00 0.00 50 1010.6
20220817152015 89 233 7.0 11.0 0.00 0.00 0.00 49 1010.6
20220817151510 89 196 5.0 9.0 0.00 0.00 0.00 49 1010.5
20220817151012 89 208 6.0 9.0 0.00 0.00 0.00 48 1010.5
20220817150514 89 178 4.0 10.0 0.00 0.00 0.00 47 1010.4
20220817150126 89 221 5.0 10.0 0.00 0.00 0.00 49 1010.6
20220817145509 90 207 8.0 10.0 0.00 0.00 0.00 47 1010.5
20220817145008 90 194 3.0 12.0 0.00 0.00 0.00 49 1010.5
20220817144507 89 169 5.0 12.0 0.00 0.00 0.00 50 1010.4
20220817144007 89 194 7.0 12.0 0.00 0.00 0.00 51 1010.4
20220817143610 90 262 8.0 12.0 0.00 0.00 0.00 50 1010.4
20220817143006 90 251 6.0 10.0 0.00 0.00 0.00 47 1010.4
20220817142507 90 244 6.0 10.0 0.00 0.00 0.00 47 1010.6
20220817142003 91 284 4.0 8.0 0.00 0.00 0.00 46 1010.6
20220817141506 91 248 4.0 9.0 0.00 0.00 0.00 45 1010.6
20220817141004 91 176 6.0 9.0 0.00 0.00 0.00 42 1010.4
20220817140501 91 189 5.0 7.0 0.00 0.00 0.00 45 1010.5
20220817140001 91 184 2.0 12.0 0.00 0.00 0.00 41 1010.5
20220817135603 91 202 6.0 12.0 0.00 0.00 0.00 40 1010.5
20220817135101 92 170 7.0 12.0 0.00 0.00 0.00 40 1010.3
20220817134607 91 205 7.0 11.0 0.00 0.00 0.00 40 1010.4
20220817134102 91 142 4.0 14.0 0.00 0.00 0.00 41 1010.4
20220817133558 91 132 7.0 14.0 0.00 0.00 0.00 41 1010.4
20220817133112 91 135 5.0 12.0 0.00 0.00 0.00 42 1010.3
20220817132559 92 158 6.0 14.0 0.00 0.00 0.00 42 1010.3
20220817132057 91 124 8.0 14.0 0.00 0.00 0.00 43 1010.3
20220817131610 91 113 8.0 14.0 0.00 0.00 0.00 43 1010.2
20220817131055 92 115 10.0 14.0 0.00 0.00 0.00 42 1010.3
20220817130556 92 49 7.0 14.0 0.00 0.00 0.00 42 1010.1
20220817130110 93 148 7.0 12.0 0.00 0.00 0.00 41 1010.3
20220817125553 94 46 4.0 16.0 0.00 0.00 0.00 31 1010.3
20220817125055 94 11 12.0 16.0 0.00 0.00 0.00 31 1010.4
20220817124551 95 333 6.0 18.0 0.00 0.00 0.00 31 1010.3
20220817124050 95 323 13.0 18.0 0.00 0.00 0.00 31 1010.4
20220817123557 94 11 3.0 18.0 0.00 0.00 0.00 31 1010.3
20220817123052 95 320 7.0 18.0 0.00 0.00 0.00 31 1010.3
20220817122555 95 31 8.0 14.0 0.00 0.00 0.00 31 1010.3
20220817122047 94 336 8.0 17.0 0.00 0.00 0.00 31 1010.2
20220817121546 94 355 12.0 19.0 0.00 0.00 0.00 31 1010.3
20220817121046 95 355 13.0 22.0 0.00 0.00 0.00 30 1010.4
20220817120544 95 347 8.0 23.0 0.00 0.00 0.00 30 1010.3
20220817120111 95 14 12.0 20.0 0.00 0.00 0.00 30 1010.3
20220817115543 94 341 12.0 20.0 0.00 0.00 0.00 31 1010.3
20220817115046 95 335 9.0 16.0 0.00 0.00 0.00 31 1010.4
20220817114544 94 333 9.0 18.0 0.00 0.00 0.00 31 1010.4
20220817114041 94 22 7.0 19.0 0.00 0.00 0.00 31 1010.4
20220817113539 94 14 13.0 19.0 0.00 0.00 0.00 31 1010.5
20220817113039 94 12 9.0 20.0 0.00 0.00 0.00 32 1010.4
20220817112537 93 345 6.0 21.0 0.00 0.00 0.00 33 1010.5
20220817112036 93 15 10.0 20.0 0.00 0.00 0.00 32 1010.5
20220817111537 93 347 14.0 20.0 0.00 0.00 0.00 33 1010.6
20220817111042 93 330 10.0 16.0 0.00 0.00 0.00 33 1010.5
20220817110537 93 32 12.0 17.0 0.00 0.00 0.00 33 1010.6
20220817110056 94 15 12.0 17.0 0.00 0.00 0.00 32 1010.7
20220817105533 94 62 7.0 17.0 0.00 0.00 0.00 33 1010.7
20220817105031 94 40 11.0 16.0 0.00 0.00 0.00 33 1010.8
20220817104544 93 9 5.0 16.0 0.00 0.00 0.00 34 1010.8
20220817104039 94 360 8.0 14.0 0.00 0.00 0.00 33 1010.8
20220817103528 93 30 7.0 18.0 0.00 0.00 0.00 33 1010.8
20220817103032 93 323 14.0 18.0 0.00 0.00 0.00 33 1010.8
20220817102527 93 27 6.0 17.0 0.00 0.00 0.00 34 1010.9
20220817102032 93 311 9.0 16.0 0.00 0.00 0.00 34 1010.8
20220817101535 93 5 8.0 14.0 0.00 0.00 0.00 34 1010.8
20220817101028 93 355 8.0 14.0 0.00 0.00 0.00 34 1010.9
20220817100523 93 5 4.0 12.0 0.00 0.00 0.00 35 1010.8
20220817100032 92 325 7.0 12.0 0.00 0.00 0.00 36 1010.9
20220817095524 93 283 5.0 13.0 0.00 0.00 0.00 35 1011.0
20220817095024 93 298 8.0 13.0 0.00 0.00 0.00 35 1011.0
20220817094520 92 311 1.0 10.0 0.00 0.00 0.00 36 1011.0
20220817094019 92 325 8.0 10.0 0.00 0.00 0.00 36 1011.0
20220817093523 92 150 3.0 8.0 0.00 0.00 0.00 37 1011.0
20220817093036 92 143 4.0 8.0 0.00 0.00 0.00 36 1011.0
20220817092515 92 76 3.0 10.0 0.00 0.00 0.00 37 1011.0
20220817092019 92 69 5.0 14.0 0.00 0.00 0.00 37 1011.1
20220817091522 92 63 3.0 14.0 0.00 0.00 0.00 36 1011.1
20220817091017 93 62 7.0 13.0 0.00 0.00 0.00 36 1011.0
20220817090513 93 32 5.0 10.0 0.00 0.00 0.00 36 1011.0
20220817090016 92 270 2.0 4.0 0.00 0.00 0.00 36 1011.0
20220817085510 91 273 1.0 9.0 0.00 0.00 0.00 36 1011.0
20220817085011 92 28 5.0 10.0 0.00 0.00 0.00 36 1011.0
20220817084513 92 28 2.0 10.0 0.00 0.00 0.00 36 1011.1
20220817084011 91 28 2.0 10.0 0.00 0.00 0.00 37 1011.1
20220817083504 91 360 4.0 12.0 0.00 0.00 0.00 37 1011.2
20220817083001 91 20 6.0 12.0 0.00 0.00 0.00 37 1011.2
20220817082604 91 355 5.0 13.0 0.00 0.00 0.00 37 1011.3
20220817082100 91 101 8.0 13.0 0.00 0.00 0.00 37 1011.4
20220817081611 91 51 9.0 13.0 0.00 0.00 0.00 38 1011.4
20220817081100 91 130 5.0 9.0 0.00 0.00 0.00 39 1011.5
20220817080556 91 145 6.0 8.0 0.00 0.00 0.00 38 1011.4
20220817080112 91 59 1.0 6.0 0.00 0.00 0.00 38 1011.6
20220817075554 90 224 0.0 7.0 0.00 0.00 0.00 39 1011.5
20220817075059 90 117 2.0 7.0 0.00 0.00 0.00 39 1011.5
20220817074551 90 82 2.0 6.0 0.00 0.00 0.00 40 1011.6
20220817074049 88 193 2.0 7.0 0.00 0.00 0.00 42 1011.6
20220817073555 88 192 3.0 7.0 0.00 0.00 0.00 42 1011.5
20220817073046 89 148 1.0 4.0 0.00 0.00 0.00 41 1011.6
20220817072545 89 242 1.0 4.0 0.00 0.00 0.00 43 1011.7
20220817072043 88 175 1.0 4.0 0.00 0.00 0.00 43 1011.7
20220817071557 87 233 1.0 3.0 0.00 0.00 0.00 44 1011.6
20220817071040 87 235 0.0 3.0 0.00 0.00 0.00 45 1011.7
20220817070539 86 242 1.0 4.0 0.00 0.00 0.00 46 1011.7
20220817070041 86 245 1.0 4.0 0.00 0.00 0.00 47 1011.7
20220817065536 86 240 2.0 5.0 0.00 0.00 0.00 48 1011.7
20220817065040 86 230 3.0 5.0 0.00 0.00 0.00 49 1011.7
20220817064535 86 277 2.0 4.0 0.00 0.00 0.00 49 1011.7
20220817064034 85 254 1.0 3.0 0.00 0.00 0.00 49 1011.7
20220817063533 85 268 1.0 4.0 0.00 0.00 0.00 50 1011.7
20220817063054 85 309 1.0 3.0 0.00 0.00 0.00 51 1011.7
20220817062531 85 269 1.0 3.0 0.00 0.00 0.00 51 1011.7
20220817062030 84 100 0.0 2.0 0.00 0.00 0.00 52 1011.7
20220817061527 84 99 0.0 4.0 0.00 0.00 0.00 52 1011.7
20220817061026 83 99 1.0 4.0 0.00 0.00 0.00 53 1011.6
20220817060525 83 115 2.0 3.0 0.00 0.00 0.00 54 1011.7
20220817060024 83 115 1.0 3.0 0.00 0.00 0.00 55 1011.8
20220817055527 82 115 0.0 3.0 0.00 0.00 0.00 56 1011.8
20220817055028 82 117 1.0 4.0 0.00 0.00 0.00 57 1011.7
20220817054523 81 87 2.0 4.0 0.00 0.00 0.00 59 1011.8
20220817054021 81 84 2.0 4.0 0.00 0.00 0.00 60 1011.7
20220817053516 80 81 2.0 4.0 0.00 0.00 0.00 61 1011.7
20220817053015 79 85 3.0 4.0 0.00 0.00 0.00 62 1011.7
20220817052520 79 56 0.0 3.0 0.00 0.00 0.00 63 1011.8
20220817052013 78 61 1.0 3.0 0.00 0.00 0.00 63 1011.7
20220817051515 77 55 1.0 3.0 0.00 0.00 0.00 64 1011.7
20220817051011 77 59 1.0 5.0 0.00 0.00 0.00 65 1011.8
20220817050511 76 51 2.0 5.0 0.00 0.00 0.00 66 1011.8
20220817050023 75 60 2.0 6.0 0.00 0.00 0.00 67 1011.9
20220817045507 75 24 3.0 5.0 0.00 0.00 0.00 67 1011.9
20220817045007 75 37 0.0 3.0 0.00 0.00 0.00 68 1011.8
20220817044504 75 56 1.0 5.0 0.00 0.00 0.00 68 1011.7
20220817044003 74 65 3.0 7.0 0.00 0.00 0.00 68 1011.7
20220817043502 74 24 3.0 7.0 0.00 0.00 0.00 68 1011.6
20220817043125 74 30 3.0 9.0 0.00 0.00 0.00 69 1011.6
20220817042600 74 52 4.0 9.0 0.00 0.00 0.00 69 1011.6
20220817042059 74 46 2.0 5.0 0.00 0.00 0.00 70 1011.6
20220817041630 74 51 0.0 6.0 0.00 0.00 0.00 70 1011.4
20220817041102 74 56 3.0 6.0 0.00 0.00 0.00 70 1011.4
20220817040557 74 60 3.0 5.0 0.00 0.00 0.00 70 1011.4
20220817040056 74 46 3.0 5.0 0.00 0.00 0.00 71 1011.5
20220817035557 74 49 2.0 6.0 0.00 0.00 0.00 71 1011.5
20220817035059 74 14 4.0 7.0 0.00 0.00 0.00 71 1011.5
20220817034552 74 79 3.0 4.0 0.00 0.00 0.00 71 1011.4
20220817034050 74 80 1.0 4.0 0.00 0.00 0.00 71 1011.3
20220817033550 73 48 2.0 9.0 0.00 0.00 0.00 72 1011.3
20220817033102 73 63 5.0 9.0 0.00 0.00 0.00 71 1011.4
20220817032555 73 32 2.0 4.0 0.00 0.00 0.00 71 1011.3
20220817032051 74 40 1.0 5.0 0.00 0.00 0.00 71 1011.4
20220817031615 74 36 3.0 5.0 0.00 0.00 0.00 71 1011.3
20220817031047 74 27 2.0 5.0 0.00 0.00 0.00 71 1011.4
20220817030548 74 34 1.0 5.0 0.00 0.00 0.00 71 1011.3
20220817030047 74 33 2.0 6.0 0.00 0.00 0.00 71 1011.4
20220817025549 74 20 0.0 5.0 0.00 0.00 0.00 71 1011.5
20220817025046 74 19 2.0 5.0 0.00 0.00 0.00 71 1011.4
20220817024604 74 72 3.0 8.0 0.00 0.00 0.00 71 1011.4
20220817024046 74 42 4.0 8.0 0.00 0.00 0.00 70 1011.6
20220817023545 74 28 2.0 5.0 0.00 0.00 0.00 70 1011.5
20220817023054 74 37 2.0 5.0 0.00 0.00 0.00 70 1011.4
20220817022544 74 35 1.0 3.0 0.00 0.00 0.00 70 1011.5
20220817022045 74 35 1.0 4.0 0.00 0.00 0.00 70 1011.6
20220817021602 74 37 2.0 9.0 0.00 0.00 0.00 70 1011.5
20220817021043 74 46 3.0 9.0 0.00 0.00 0.00 70 1011.6
20220817020544 74 107 3.0 7.0 0.00 0.00 0.00 70 1011.5
20220817020103 74 38 4.0 7.0 0.00 0.00 0.00 70 1011.6
20220817015543 74 75 2.0 5.0 0.00 0.00 0.00 69 1011.5
20220817015042 75 52 1.0 8.0 0.00 0.00 0.00 69 1011.5
20220817014558 75 40 5.0 8.0 0.00 0.00 0.00 69 1011.5
20220817014042 75 45 0.0 3.0 0.00 0.00 0.00 69 1011.5
20220817013546 75 46 0.0 4.0 0.00 0.00 0.00 68 1011.5
20220817013038 75 36 2.0 4.0 0.00 0.00 0.00 68 1011.4
20220817012546 75 38 2.0 5.0 0.00 0.00 0.00 68 1011.4
20220817012042 75 42 2.0 6.0 0.00 0.00 0.00 68 1011.5
20220817011538 75 62 2.0 6.0 0.00 0.00 0.00 67 1011.5
20220817011041 75 55 4.0 6.0 0.00 0.00 0.00 67 1011.5
20220817010537 76 42 3.0 5.0 0.00 0.00 0.00 67 1011.4
20220817010050 76 74 3.0 5.0 0.00 0.00 0.00 68 1011.5
20220817005539 76 55 3.0 6.0 0.00 0.00 0.00 68 1011.6
20220817005036 75 61 3.0 6.0 0.00 0.00 0.00 68 1011.5
20220817004536 75 53 4.0 6.0 0.00 0.00 0.00 68 1011.7
20220817004036 75 46 4.0 6.0 0.00 0.00 0.00 67 1011.8
20220817003542 75 34 3.0 5.0 0.00 0.00 0.00 67 1011.8
20220817003039 75 47 3.0 5.0 0.00 0.00 0.00 67 1011.6
20220817002534 75 56 3.0 6.0 0.00 0.00 0.00 67 1011.6
20220817002034 75 32 2.0 7.0 0.00 0.00 0.00 67 1011.8
20220817001541 75 33 5.0 9.0 0.00 0.00 0.00 67 1011.9
20220817001032 75 40 5.0 9.0 0.00 0.00 0.00 66 1011.8
20220817000533 76 21 3.0 6.0 0.00 0.00 0.00 66 1011.8
20220817000034 76 63 2.0 4.0 0.00 0.00 0.00 66 1011.7
20220816235529 76 68 1.0 5.0 0.00 0.00 0.00 66 1011.7
20220816235030 76 69 3.0 5.0 0.00 0.00 0.00 66 1011.8
20220816234557 76 50 2.0 6.0 0.00 0.00 0.00 66 1011.8
20220816234027 76 55 3.0 6.0 0.00 0.00 0.00 66 1012.0
20220816233533 76 42 4.0 6.0 0.00 0.00 0.00 66 1012.0
20220816233029 76 41 4.0 6.0 0.00 0.00 0.00 66 1012.1
20220816232529 76 42 4.0 8.0 0.00 0.00 0.00 66 1012.1
20220816232025 77 28 5.0 8.0 0.00 0.00 0.00 65 1012.2
20220816231541 77 24 3.0 5.0 0.00 0.00 0.00 64 1012.2
20220816231022 78 54 0.0 3.0 0.00 0.00 0.00 64 1012.1
20220816230520 78 55 0.0 3.0 0.00 0.00 0.00 64 1012.2
20220816230020 78 55 0.0 4.0 0.00 0.00 0.00 64 1012.3
20220816225525 79 55 3.0 5.0 0.00 0.00 0.00 64 1012.3
20220816225018 79 45 4.0 5.0 0.00 0.00 0.00 63 1012.3
20220816224525 79 248 2.0 3.0 0.00 0.00 0.00 63 1012.2
20220816224019 80 228 0.0 4.0 0.00 0.00 0.00 63 1012.4
20220816223515 80 232 2.0 4.0 0.00 0.00 0.00 63 1012.4
20220816223015 80 244 1.0 3.0 0.00 0.00 0.00 63 1012.4
20220816222515 80 244 0.0 5.0 0.00 0.00 0.00 63 1012.4
20220816222020 80 238 2.0 4.0 0.00 0.00 0.00 63 1012.4
20220816221526 80 240 2.0 6.0 0.00 0.00 0.00 63 1012.4
20220816221014 80 235 2.0 8.0 0.00 0.00 0.00 63 1012.4
20220816220513 80 209 4.0 8.0 0.00 0.00 0.00 63 1012.5
20220816220027 80 196 2.0 6.0 0.00 0.00 0.00 63 1012.5
20220816215512 80 191 2.0 4.0 0.00 0.00 0.00 63 1012.6
20220816215011 80 189 2.0 3.0 0.00 0.00 0.00 63 1012.5
20220816214512 80 198 2.0 3.0 0.00 0.00 0.00 63 1012.6
20220816214011 80 259 0.0 2.0 0.00 0.00 0.00 63 1012.6
20220816213517 80 261 1.0 3.0 0.00 0.00 0.00 63 1012.6
20220816213015 80 263 1.0 3.0 0.00 0.00 0.00 62 1012.7
20220816212509 80 267 0.0 2.0 0.00 0.00 0.00 62 1012.8
20220816212010 80 265 0.0 2.0 0.00 0.00 0.00 62 1012.8
20220816211509 80 263 0.0 2.0 0.00 0.00 0.00 62 1012.7
20220816211011 80 261 0.0 3.0 0.00 0.00 0.00 62 1012.7
20220816210509 80 261 1.0 3.0 0.00 0.00 0.00 62 1012.6
20220816210011 80 264 0.0 0.0 0.00 0.00 0.00 62 1012.6
20220816205506 80 263 0.0 0.0 0.00 0.00 0.00 62 1012.6
20220816205006 80 261 0.0 0.0 0.00 0.00 0.00 62 1012.7
20220816204505 80 257 0.0 0.0 0.00 0.00 0.00 62 1012.7
20220816204006 80 256 0.0 2.0 0.00 0.00 0.00 62 1012.7
20220816203505 80 254 0.0 2.0 0.00 0.00 0.00 63 1012.7